Simultaneous Nadir Overpasses (SNOs) Predictions

Prediction of SNOs between NOAA-21 and PACE Satellite Orbit:

Table of predicted SNOs for the next 14.0 days since TLE Epoch: 6/8/2024
Index Date (NOAA-21) Time (NOAA-21) Lat,Lon (NOAA-21) SZA (NOAA-21 ) Date (PACE) Time (PACE) Lat,Lon (PACE) SZA (PACE ) Distance(km) Time Diff (sec)
1 06/09/2024 10:17:28 79.74, -11.01 58.88 06/09/2024 10:17:55 79.74, -11.00 58.86 0.49 27
2 06/09/2024 11:08:06 -79.54, 158.07 121.48 06/09/2024 11:06:59 -79.54, 158.11 121.46 0.90 67
3 06/11/2024 14:43:55 79.67, -77.04 58.62 06/11/2024 14:44:00 79.68, -77.16 58.64 2.69 5
4 06/13/2024 18:21:25 -81.27, 11.32 115.50 06/13/2024 18:22:38 -81.94, 11.34 115.39 75.05 73
5 06/13/2024 19:10:22 79.61,-143.11 58.41 06/13/2024 19:10:04 79.62,-143.23 58.43 2.58 18
6 06/15/2024 22:46:11 -79.79, -18.66 121.35 06/15/2024 22:47:04 -79.79, -18.70 121.38 0.79 53
7 06/15/2024 23:36:51 79.62, 150.21 58.34 06/15/2024 23:36:09 79.62, 150.24 58.36 0.64 42
8 06/18/2024 03:12:38 -79.74, -84.80 121.49 06/18/2024 03:13:07 -79.74, -84.85 121.50 1.03 29
9 06/18/2024 04:03:18 79.57, 84.04 58.21 06/18/2024 04:02:12 79.57, 84.06 58.24 0.55 66



Historial Predications of SNOs between NOAA-21 and PACE
